Regional Weather Roundup
Issued by NWS

Home | Current Version | Previous Version | Graphics & Text | Print | Product List | Glossary On
Versions: 1 2 3 4 5 6 7 8 9 10 11 12 13 14 15 16 17 18 19 20 21 22 23 24 25 26 27 28 29 30 31 32 33 34 35 36 37 38 39 40 41 42 43 44 45 46 47 48 49 50
504
ASUS43 KLSX 252110
RWRMO

WEATHER SUMMARY FOR MISSOURI
NATIONAL WEATHER SERVICE SPRINGFIELD MO
400 PM CDT THU MAY 25 2017

NOTE: "FAIR" INDICATES FEW OR NO CLOUDS BELOW 12,000 FEET WITH NO
       SIGNIFICANT WEATHER AND/OR OBSTRUCTIONS TO VISIBILITY.
       CURRENT SKY AND/OR WEATHER CONDITIONS ARE NOT AVAILABLE FOR
       CHILLICOTHE AND FARMINGTON.

MOZ001>031-035>038-043-044-053-054-252200-
...NORTHERN AND WESTERN MISSOURI...

CITY           SKY/WX    TMP DP  RH WIND       PRES   REMARKS
KANSAS CTY INT MOSUNNY   75  55  49 SE16      29.61F
KANSAS C DTWN  SUNNY     77  53  43 SE14G20   29.61F
LEE`S SUMMIT   SUNNY     75  54  47 SE14G21   29.63F
ST JOSEPH      SUNNY     76  54  46 SE16G24   29.59F
CHILLICOTHE      N/A     73  52  47 VRB7      29.67F
KIRKSVILLE     SUNNY     72  52  49 S6        29.68F

$$
MOZ066>068-077>081-088>096-101>105-252200-
...SOUTHWEST MISSOURI...

CITY           SKY/WX    TMP DP  RH WIND       PRES   REMARKS
SPRINGFIELD    SUNNY     76  54  46 SE13      29.68F
JOPLIN         MOSUNNY   78  57  48 S15       29.63F
BRANSON        MOSUNNY   77  55  47 S12       29.72F

$$
MOZ032>034-039>042-045>050-055>058-069>072-252200-
...CENTRAL MISSOURI...

CITY           SKY/WX    TMP DP  RH WIND       PRES   REMARKS
COLUMBIA       SUNNY     73  51  46 VRB3      29.70F
JEFFERSON CITY SUNNY     76  49  38 S6        29.69F
ROLLA          SUNNY     72  51  47 VRB5      29.71
SEDALIA        SUNNY     76  55  48 S9        29.69F
WHITEMAN AFB   MOSUNNY   75  52  44 S12       29.65F
WARRENSBURG    SUNNY     73  54  49 SE8       29.66F
OSAGE BEACH    SUNNY     75  52  44 SE5       29.70F

$$
MOZ051-052-059>065-252200-
...EAST CENTRAL MISSOURI...

CITY           SKY/WX    TMP DP  RH WIND       PRES   REMARKS
ST LOUIS INTL  MOSUNNY   77  52  41 W13       29.70F
SPIRIT OF STL  MOSUNNY   75  52  44 W7        29.69F
ST CHARLES     MOSUNNY   73  49  42 CALM      29.69F

$$
MOZ072>076-082>087-097>100-106>115-252200-
...SOUTH CENTRAL AND SOUTHEAST MISSOURI...

CITY           SKY/WX    TMP DP  RH WIND       PRES   REMARKS
CAPE GIRARDEAU MOSUNNY   75  48  38 SW9       29.73S
POPLAR BLUFF   SUNNY     75  53  46 SW8       29.73F
WEST PLAINS    SUNNY     73  51  46 VRB6      29.76S

$$




USA.gov is the U.S. government's official web portal to all federal, state and local government web resources and services.